Location: Newark
(30.0333°N, 31.2167°E)
Time: 19:33:00
(UTC+00:00)

S-56A Canister/Altair - All Passes

Search period start: 19 January 2020 00:00
Search period end: 29 January 2020 00:00
Orbit: 634 x 2498 km, 38.9° (Epoch: 18 January)

Date Brightness Start Highest point End Pass type
(mag) Time Alt. Az. Time Alt. Az. Time Alt. Az.
19 Jan - 00:37:43 10° WNW 00:42:32 62° NNE 00:49:11 10° ESE visible
19 Jan - 02:41:11 10° W 02:46:40 39° SSW 02:54:32 10° SSE visible
19 Jan - 17:51:25 10° SSW 17:57:25 36° SSE 18:01:56 10° E visible
19 Jan - 19:56:03 10° W 20:01:10 52° NNW 20:05:30 10° NE night (unlit)
19 Jan - 22:01:41 10° WNW 22:05:31 27° N 22:09:33 10° ENE night (unlit)
20 Jan - 00:05:20 10° NW 00:09:54 53° NNE 00:15:53 10° E visible
20 Jan - 02:08:40 10° WNW 02:13:54 43° SSW 02:21:23 10° SE visible
20 Jan - 04:17:27 10° SW 04:18:36 10° SW 04:19:48 10° SSW visible
20 Jan - 17:18:30 10° SSW 17:24:45 32° SSE 17:29:23 10° E visible
20 Jan - 19:22:59 10° WSW 19:28:35 62° NNW 19:33:03 10° ENE visible
20 Jan - 21:28:55 10° WNW 21:32:50 27° N 21:36:44 10° ENE night (unlit)
20 Jan - 23:32:56 10° NW 23:37:17 45° NNE 23:42:40 10° E night (unlit)
21 Jan - 01:36:12 10° WNW 01:41:11 49° SSW 01:48:14 10° SE visible
21 Jan - 03:43:19 10° SW 03:45:41 12° SW 03:48:20 10° SSW visible
21 Jan - 16:45:34 10° SSW 16:52:01 28° SSE 16:56:48 10° E visible
21 Jan - 18:49:51 10° WSW 18:56:00 73° NNW 19:00:38 10° ENE visible
21 Jan - 20:56:03 10° WNW 21:00:10 28° N 21:04:03 10° NE night (unlit)
21 Jan - 23:00:29 10° NW 23:04:40 39° NNE 23:09:33 10° E night (unlit)
22 Jan - 01:03:44 10° WNW 01:08:31 56° SSW 01:15:09 10° SE visible
22 Jan - 03:09:55 10° WSW 03:12:50 13° SW 03:16:11 10° S visible
22 Jan - 16:12:37 10° SSW 16:19:14 26° SSE 16:24:10 10° E visible
22 Jan - 18:16:38 10° WSW 18:23:23 85° NNW 18:28:15 10° ENE visible
22 Jan - 20:23:03 10° WNW 20:27:30 30° N 20:31:27 10° NE night (unlit)
22 Jan - 22:27:58 10° NW 22:32:03 35° NNE 22:36:31 10° E night (unlit)
23 Jan - 00:31:17 10° WNW 00:35:55 65° SSW 00:42:06 10° SE visible
23 Jan - 02:36:48 10° WSW 02:40:01 15° SW 02:43:49 10° S visible
23 Jan - 15:39:42 10° SSW 15:46:25 23° SE 15:51:28 10° E visible
23 Jan - 17:43:22 10° WSW 17:50:44 84° SSE 17:55:51 10° ENE visible
23 Jan - 19:49:56 10° WNW 19:54:50 33° NNW 19:58:57 10° NE visible
23 Jan - 21:55:22 10° NW 21:59:25 32° NNE 22:03:34 10° ENE night (unlit)
23 Jan - 23:58:49 10° WNW 00:03:20 77° SSW 00:09:06 10° ESE night (unlit)
24 Jan - 02:03:50 10° WSW 02:07:15 16° SW 02:11:21 10° S visible
24 Jan - 15:06:47 10° S 15:13:31 21° SE 15:18:41 10° E daylight
24 Jan - 17:10:04 10° SW 17:18:03 74° SSE 17:23:27 10° ENE visible
24 Jan - 19:16:42 10° W 19:22:10 37° NNW 19:26:30 10° NE visible
24 Jan - 21:22:40 10° NW 21:26:46 30° N 21:30:44 10° ENE night (unlit)
24 Jan - 23:26:20 10° WNW 23:30:48 90° NNE 23:36:08 10° ESE night (unlit)
25 Jan - 01:31:00 10° WSW 01:34:32 18° SW 01:38:49 10° S visible
25 Jan - 14:33:56 10° S 14:40:34 19° SE 14:45:46 10° ESE daylight
25 Jan - 16:36:42 10° SW 16:45:19 65° SSE 16:51:02 10° ENE visible
25 Jan - 18:43:21 10° W 18:49:30 43° NNW 18:54:07 10° NE visible
25 Jan - 20:49:50 10° WNW 20:54:07 29° N 20:58:00 10° ENE night (unlit)
25 Jan - 22:53:50 10° WNW 22:58:16 76° NNE 23:03:15 10° ESE night (unlit)
26 Jan - 00:58:14 10° W 01:01:53 21° SW 01:06:16 10° SSE visible
26 Jan - 14:01:10 10° S 14:07:34 18° SE 14:12:44 10° ESE daylight
26 Jan - 16:03:19 10° SW 16:12:31 58° SSE 16:18:35 10° ENE visible
26 Jan - 18:09:55 10° W 18:16:49 49° NNW 18:21:44 10° NE visible
26 Jan - 20:16:52 10° WNW 20:21:25 29° N 20:25:21 10° ENE night (unlit)
26 Jan - 22:21:16 10° WNW 22:25:44 64° NNE 22:30:24 10° ESE night (unlit)
27 Jan - 00:25:31 10° W 00:29:15 24° SW 00:33:42 10° SSE night (unlit)
27 Jan - 13:28:32 10° S 13:34:30 16° SE 13:39:29 10° ESE daylight
27 Jan - 15:29:54 10° SW 15:39:39 52° SSE 15:46:06 10° ENE daylight
27 Jan - 17:36:23 10° W 17:44:05 56° NNW 17:49:23 10° ENE visible
27 Jan - 19:43:45 10° WNW 19:48:43 30° N 19:52:48 10° ENE visible
27 Jan - 21:48:39 10° WNW 21:53:10 54° NNE 21:57:37 10° E night (unlit)
27 Jan - 23:52:49 10° W 23:56:41 28° SW 00:01:09 10° SSE night (unlit)
28 Jan - 12:56:07 10° SSE 13:01:24 14° SE 13:05:58 10° ESE daylight
28 Jan - 14:56:29 10° SW 15:06:43 47° SSE 15:13:34 10° ENE daylight
28 Jan - 17:02:47 10° WSW 17:11:20 64° NNW 17:17:00 10° ENE visible
28 Jan - 19:10:29 10° WNW 19:15:59 32° N 19:20:17 10° ENE visible
28 Jan - 21:15:56 10° WNW 21:20:36 47° NNE 21:24:54 10° E night (unlit)
28 Jan - 23:20:08 10° W 23:24:08 34° SW 23:28:36 10° SSE night (unlit)
